TimeEST,TemperatureF,Dew PointF,Humidity,Sea Level PressureIn,VisibilityMPH,Wind Direction,Wind SpeedMPH,Gust SpeedMPH,PrecipitationIn,Events,Conditions,WindDirDegrees,DateUTC
12:13 AM,34.7,26.6,72,30.24,10.0,East,5.8,-,N/A,,Overcast,80,2012-11-05 05:13:00
12:34 AM,34.7,26.4,72,30.24,10.0,ENE,8.1,-,N/A,,Overcast,60,2012-11-05 05:34:00
12:54 AM,34.7,26.1,71,30.25,10.0,East,8.1,-,N/A,,Overcast,90,2012-11-05 05:54:00
1:14 AM,34.9,26.2,71,30.25,10.0,East,6.9,-,N/A,,Overcast,80,2012-11-05 06:14:00
1:34 AM,34.9,26.2,71,30.24,10.0,ENE,8.1,-,N/A,,Overcast,70,2012-11-05 06:34:00
1:53 AM,34.7,26.2,71,30.24,10.0,ENE,5.8,-,N/A,,Overcast,60,2012-11-05 06:53:00
2:14 AM,34.7,28.0,77,30.24,10.0,ENE,9.2,-,N/A,,Overcast,70,2012-11-05 07:14:00
2:33 AM,34.2,29.1,82,30.25,10.0,ENE,9.2,-,N/A,,Overcast,70,2012-11-05 07:33:00
2:54 AM,33.8,28.9,82,30.25,10.0,ENE,6.9,-,N/A,,Overcast,70,2012-11-05 07:54:00
3:14 AM,33.4,28.8,83,30.25,10.0,ENE,9.2,-,N/A,,Overcast,70,2012-11-05 08:14:00
3:34 AM,33.3,28.4,82,30.25,10.0,East,11.5,-,N/A,,Overcast,80,2012-11-05 08:34:00
3:54 AM,33.1,28.4,83,30.25,10.0,ENE,11.5,-,N/A,,Overcast,60,2012-11-05 08:54:00
4:14 AM,32.9,28.4,84,30.25,10.0,ENE,10.4,-,N/A,,Overcast,60,2012-11-05 09:14:00
4:34 AM,32.9,28.2,83,30.25,10.0,ENE,10.4,-,N/A,,Overcast,70,2012-11-05 09:34:00
4:54 AM,32.5,28.2,84,30.25,10.0,ENE,9.2,-,N/A,,Overcast,60,2012-11-05 09:54:00
5:13 AM,32.5,27.5,82,30.26,10.0,ENE,8.1,-,N/A,,Overcast,70,2012-11-05 10:13:00
5:34 AM,32.4,27.5,82,30.26,10.0,NE,5.8,-,N/A,,Overcast,50,2012-11-05 10:34:00
5:53 AM,32.0,27.1,82,30.26,10.0,NE,6.9,-,N/A,,Overcast,50,2012-11-05 10:53:00
6:13 AM,32.0,26.8,81,30.27,10.0,ENE,8.1,-,N/A,,Overcast,70,2012-11-05 11:13:00
6:34 AM,32.0,25.7,78,30.27,10.0,ENE,5.8,-,N/A,,Overcast,70,2012-11-05 11:34:00
7:14 AM,32.0,25.9,78,30.27,10.0,ENE,8.1,-,N/A,,Overcast,70,2012-11-05 12:14:00
7:34 AM,32.0,25.7,78,30.27,10.0,East,5.8,-,N/A,,Overcast,80,2012-11-05 12:34:00
7:54 AM,32.0,25.3,76,30.27,10.0,East,6.9,-,N/A,,Overcast,80,2012-11-05 12:54:00
8:14 AM,32.4,24.8,74,30.27,10.0,East,8.1,-,N/A,,Overcast,90,2012-11-05 13:14:00
8:34 AM,32.5,23.9,70,30.28,10.0,East,9.2,-,N/A,,Overcast,90,2012-11-05 13:34:00
8:54 AM,33.1,23.5,68,30.28,10.0,East,9.2,-,N/A,,Overcast,80,2012-11-05 13:54:00
9:14 AM,33.1,23.0,66,30.28,10.0,East,6.9,-,N/A,,Overcast,100,2012-11-05 14:14:00
9:34 AM,33.3,22.8,66,30.28,10.0,ESE,10.4,-,N/A,,Overcast,110,2012-11-05 14:34:00
9:54 AM,33.1,22.5,65,30.28,10.0,East,9.2,-,N/A,,Overcast,100,2012-11-05 14:54:00
10:14 AM,33.4,23.0,66,30.29,10.0,ENE,10.4,-,N/A,,Overcast,70,2012-11-05 15:14:00
10:34 AM,33.1,22.6,66,30.29,10.0,ESE,6.9,-,N/A,,Overcast,110,2012-11-05 15:34:00
10:53 AM,32.9,22.6,66,30.29,10.0,ESE,6.9,-,N/A,,Overcast,110,2012-11-05 15:53:00
11:14 AM,33.3,21.9,63,30.29,10.0,ESE,6.9,-,N/A,,Overcast,120,2012-11-05 16:14:00
11:34 AM,33.8,21.2,60,30.29,10.0,East,8.1,-,N/A,,Overcast,90,2012-11-05 16:34:00
11:53 AM,33.3,20.5,59,30.29,10.0,East,3.5,-,N/A,,Overcast,100,2012-11-05 16:53:00
12:14 PM,34.0,21.2,60,30.28,10.0,East,5.8,-,N/A,,Overcast,80,2012-11-05 17:14:00
12:34 PM,33.8,21.2,60,30.27,10.0,ESE,9.2,-,N/A,,Overcast,120,2012-11-05 17:34:00
12:54 PM,34.2,21.7,60,30.26,10.0,ESE,5.8,-,N/A,,Overcast,120,2012-11-05 17:54:00
1:14 PM,34.7,21.7,59,30.25,10.0,East,6.9,-,N/A,,Overcast,80,2012-11-05 18:14:00
1:33 PM,34.3,21.6,60,30.25,10.0,East,4.6,-,N/A,,Overcast,90,2012-11-05 18:33:00
1:54 PM,34.5,21.6,59,30.25,10.0,East,5.8,-,N/A,,Overcast,100,2012-11-05 18:54:00
2:14 PM,35.8,21.7,57,30.25,10.0,ESE,4.6,-,N/A,,Overcast,110,2012-11-05 19:14:00
2:34 PM,36.7,21.6,54,30.24,10.0,East,5.8,-,N/A,,Overcast,100,2012-11-05 19:34:00
2:54 PM,35.8,21.7,57,30.24,10.0,East,4.6,-,N/A,,Overcast,80,2012-11-05 19:54:00
3:14 PM,34.7,21.7,59,30.24,10.0,ENE,3.5,-,N/A,,Overcast,60,2012-11-05 20:14:00
3:34 PM,35.2,22.1,59,30.24,10.0,ENE,4.6,-,N/A,,Overcast,70,2012-11-05 20:34:00
3:54 PM,34.9,21.6,58,30.24,10.0,East,5.8,-,N/A,,Overcast,80,2012-11-05 20:54:00
4:14 PM,34.7,21.6,59,30.23,10.0,ENE,3.5,-,N/A,,Overcast,70,2012-11-05 21:14:00
4:34 PM,34.3,21.2,59,30.22,10.0,East,5.8,-,N/A,,Overcast,90,2012-11-05 21:34:00
4:54 PM,34.3,21.6,60,30.22,10.0,ENE,3.5,-,N/A,,Overcast,60,2012-11-05 21:54:00
5:14 PM,34.3,21.9,60,30.22,10.0,ESE,4.6,-,N/A,,Overcast,120,2012-11-05 22:14:00
5:34 PM,34.0,22.1,62,30.22,10.0,Calm,Calm,-,N/A,,Overcast,0,2012-11-05 22:34:00
5:54 PM,33.8,22.6,64,30.22,10.0,SE,4.6,-,N/A,,Overcast,140,2012-11-05 22:54:00
6:14 PM,33.8,21.4,60,30.22,10.0,South,3.5,-,N/A,,Overcast,170,2012-11-05 23:14:00
6:33 PM,33.8,21.6,61,30.22,10.0,SE,3.5,-,N/A,,Overcast,130,2012-11-05 23:33:00
6:53 PM,32.9,21.2,62,30.22,10.0,Calm,Calm,-,N/A,,Mostly Cloudy,0,2012-11-05 23:53:00
7:14 PM,32.9,21.7,64,30.22,10.0,Calm,Calm,-,N/A,,Mostly Cloudy,0,2012-11-06 00:14:00
7:34 PM,31.6,23.7,73,30.22,10.0,Calm,Calm,-,N/A,,Overcast,0,2012-11-06 00:34:00
7:54 PM,31.5,24.6,76,30.22,10.0,Calm,Calm,-,N/A,,Overcast,0,2012-11-06 00:54:00
8:14 PM,30.4,23.9,77,30.22,10.0,Calm,Calm,-,N/A,,Overcast,0,2012-11-06 01:14:00
8:34 PM,30.6,24.4,78,30.21,10.0,Calm,Calm,-,N/A,,Overcast,0,2012-11-06 01:34:00
8:53 PM,30.7,23.4,74,30.21,10.0,Calm,Calm,-,N/A,,Mostly Cloudy,0,2012-11-06 01:53:00
9:14 PM,31.1,23.5,74,30.21,10.0,SE,4.6,-,N/A,,Overcast,140,2012-11-06 02:14:00
9:33 PM,32.0,23.0,69,30.20,10.0,SE,4.6,-,N/A,,Overcast,130,2012-11-06 02:33:00
9:53 PM,32.0,22.6,68,30.20,10.0,SE,4.6,-,N/A,,Overcast,140,2012-11-06 02:53:00
10:14 PM,31.6,22.5,69,30.19,10.0,SE,4.6,-,N/A,,Overcast,130,2012-11-06 03:14:00
10:34 PM,31.1,22.3,70,30.19,10.0,Calm,Calm,-,N/A,,Overcast,0,2012-11-06 03:34:00
10:54 PM,30.9,22.8,72,30.18,10.0,SE,5.8,-,N/A,,Overcast,140,2012-11-06 03:54:00
11:14 PM,30.9,23.0,72,30.17,10.0,SSE,4.6,-,N/A,,Overcast,160,2012-11-06 04:14:00
11:33 PM,30.7,22.8,72,30.17,10.0,SSE,5.8,-,N/A,,Overcast,150,2012-11-06 04:33:00
11:54 PM,30.2,22.6,73,30.17,10.0,SSE,5.8,-,N/A,,Overcast,150,2012-11-06 04:54:00